Weather History for Lewiston, ID

Change the Weather History Date:

Sunday, December 1, 2013

  Actual Average Record
Temperature  
Mean Temperature 47 °F 36 °F  
Max Temperature 56 °F 42 °F 65 °F (1939)
Min Temperature 37 °F 30 °F 3 °F (1985)
Degree Days  
Heating Degree Days 18 29  
Month to date heating degree days 18 29  
Since 1 July heating degree days 1372 1269  
Cooling Degree Days 0 0  
Month to date cooling degree days 0 0  
Year to date cooling degree days 1178 807  
Moisture  
Dew Point 38 °F    
Average Humidity 79    
Maximum Humidity 92    
Minimum Humidity 66    
Precipitation  
Precipitation 0.29 in 0.04 in 0.50 in (1896)
Month to date precipitation 0.29 0.04  
Year to date precipitation 9.05 11.38  
Snow  
Snow 0.00 in 0.10 in 2.00 in (1977)
Month to date snowfall 0.0 0.1  
Since 1 July snowfall T 1.9  
Snow Depth 0.00 in    
Sea Level Pressure  
Sea Level Pressure 30.00 in    
Wind  
Wind Speed 6 mph (SSE)    
Max Wind Speed 23 mph    
Max Gust Speed 29 mph    
Visibility 5 miles    
Events Fog , Rain    
T = Trace of Precipitation, MM = Missing Value Source: NWS Daily Summary

Daily Weather History Graph

Daily Weather History Graph

Search for Another Location

Airport:

Trip Planner

Search our weather history database for the weather conditions in past years. The results will help you decide how hot, cold, wet, or windy it might be!

Date:

Astronomy

Dec. 01, 2013 Rise Set
Actual Time 7:11 AM PST 4:03 PM PST
Civil Twilight 6:37 AM PST 4:37 PM PST
Nautical Twilight 5:59 AM PST 5:14 PM PST
Astronomical Twilight 5:23 AM PST 5:51 PM PST
Moon 5:30 AM PST (12/1) 3:20 PM PST (12/1)
Length of Visible Light 10h 00m
Length of Day
8h 51m
Waning Crescent, 2% of the Moon is Illuminated
Dec 1
Waning Crescent
Dec 2
New
Dec 9
First Quarter
Dec 17
Full
Dec 25
Last Quarter

Hourly Weather History & Observations

Time (PST) Temp. Windchill Dew Point Humidity Pressure Visibility Wind Dir Wind Speed Gust Speed Precip Events Conditions
12:13 AM 37.4 °F - 35.6 °F 93% 30.18 in 3.0 mi Calm Calm - N/A   Overcast
12:43 AM 37.4 °F 34.9 °F 35.6 °F 93% 30.16 in 3.0 mi South 3.5 mph - N/A   Overcast
12:51 AM 37.4 °F 34.9 °F 35.6 °F 93% 30.16 in 2.0 mi SE 3.5 mph - N/A   Overcast
12:56 AM 37.0 °F - 34.0 °F 89% 30.19 in 2.0 mi Calm Calm - N/A   Overcast
1:41 AM 37.4 °F 34.9 °F 35.6 °F 93% 30.15 in 3.0 mi SE 3.5 mph - 0.00 in   Overcast
1:52 AM 37.4 °F - 35.6 °F 93% 30.15 in 2.5 mi Calm Calm - 0.00 in Rain Light Rain
1:56 AM 37.0 °F - 35.1 °F 93% 30.18 in 2.5 mi Calm Calm - 0.00 in Rain Light Rain
2:07 AM 37.4 °F 33.8 °F 35.6 °F 93% 30.17 in 2.0 mi WNW 4.6 mph - 0.00 in Rain Light Rain
2:13 AM 37.4 °F - 35.6 °F 93% 30.15 in 1.2 mi Calm Calm - 0.01 in Rain Light Rain
2:23 AM 37.4 °F - 35.6 °F 93% 30.15 in 0.8 mi Calm Calm - 0.01 in Rain Light Rain
2:34 AM 37.4 °F - 35.6 °F 93% 30.14 in 1.2 mi Calm Calm - 0.02 in Rain Light Rain
2:43 AM 37.4 °F - 35.6 °F 93% 30.14 in 1.8 mi Calm Calm - 0.02 in   Overcast
2:56 AM 37.9 °F - 35.1 °F 89% 30.16 in 1.0 mi Calm Calm - 0.02 in Rain Light Rain
3:04 AM 37.4 °F 34.9 °F 35.6 °F 93% 30.12 in 0.5 mi ESE 3.5 mph - 0.00 in Fog , Rain Light Rain
3:15 AM 37.4 °F 33.8 °F 35.6 °F 93% 30.12 in 1.5 mi ESE 4.6 mph - 0.00 in   Overcast
3:19 AM 37.4 °F 34.9 °F 35.6 °F 93% 30.11 in 3.0 mi ESE 3.5 mph - 0.00 in Rain Light Rain
3:31 AM 37.4 °F 34.9 °F 35.6 °F 93% 30.11 in 1.8 mi NNW 3.5 mph - 0.00 in Rain Light Rain
3:33 AM 37.4 °F 34.9 °F 35.6 °F 93% 30.11 in 0.8 mi NNW 3.5 mph - 0.00 in Rain Light Rain
3:42 AM 37.4 °F 34.9 °F 35.6 °F 93% 30.10 in 0.2 mi NNW 3.5 mph - 0.01 in Fog , Rain Light Rain
3:56 AM 37.0 °F - 36.0 °F 96% 30.12 in 0.8 mi Calm Calm - 0.01 in Rain Light Rain
4:06 AM 37.4 °F 34.9 °F 35.6 °F 93% 30.08 in 1.5 mi ENE 3.5 mph - 0.00 in Rain Light Rain
4:08 AM 37.4 °F 33.8 °F 35.6 °F 93% 30.08 in 3.0 mi ENE 4.6 mph - 0.01 in Rain Light Rain
4:46 AM 37.4 °F 33.8 °F 35.6 °F 93% 30.05 in 1.2 mi NNW 4.6 mph - 0.03 in Rain Light Rain
4:54 AM 37.4 °F 34.9 °F 35.6 °F 93% 30.05 in 0.5 mi NE 3.5 mph - 0.03 in Fog , Rain Light Rain
4:56 AM 37.9 °F 34.4 °F 36.0 °F 93% 30.08 in 0.8 mi NE 4.6 mph - 0.03 in Rain Light Rain
5:01 AM 37.4 °F 33.8 °F 35.6 °F 93% 30.04 in 1.5 mi ENE 4.6 mph - 0.01 in Rain Light Rain
5:04 AM 37.4 °F 34.9 °F 35.6 °F 93% 30.04 in 3.0 mi Variable 3.5 mph - 0.02 in Rain Light Rain
5:18 AM 37.4 °F 32.1 °F 35.6 °F 93% 30.03 in 1.8 mi SE 6.9 mph - 0.03 in Rain Light Rain
5:22 AM 37.4 °F 32.8 °F 35.6 °F 93% 30.02 in 0.8 mi SE 5.8 mph - 0.03 in Rain Light Rain
5:33 AM 37.4 °F - 35.6 °F 93% 30.01 in 0.2 mi Calm Calm - 0.04 in Fog , Rain Light Rain
5:56 AM 37.9 °F - 36.0 °F 93% 30.03 in 1.8 mi Calm Calm - 0.07 in Rain Light Rain
6:04 AM 37.4 °F - 35.6 °F 93% 29.99 in 2.5 mi Calm Calm - 0.01 in Rain Light Rain
6:13 AM 37.4 °F - 35.6 °F 93% 29.98 in 1.2 mi Calm Calm - 0.02 in Rain Rain
6:22 AM 37.4 °F 33.8 °F 35.6 °F 93% 29.98 in 0.8 mi SE 4.6 mph - 0.04 in Rain Rain
6:27 AM 39.2 °F 34.2 °F 37.4 °F 93% 29.97 in 1.5 mi SSE 6.9 mph - 0.04 in Rain Rain
6:29 AM 39.2 °F 33.6 °F 37.4 °F 93% 29.97 in 3.0 mi SSE 8.1 mph - 0.05 in Rain Rain
6:56 AM 42.1 °F 33.6 °F 37.0 °F 82% 29.98 in 7.0 mi South 18.4 mph 24.2 mph 0.09 in Rain Light Rain
7:56 AM 46.0 °F 38.5 °F 37.0 °F 71% 29.94 in 10.0 mi South 19.6 mph 27.6 mph 0.03 in Rain Light Rain
8:56 AM 46.0 °F 41.9 °F 39.9 °F 79% 29.93 in 9.0 mi SSW 8.1 mph - 0.03 in Rain Light Rain
9:56 AM 48.0 °F - 41.0 °F 77% 29.91 in 10.0 mi SW 6.9 mph - 0.01 in Rain Light Rain
10:56 AM 50.0 °F - 41.0 °F 71% 29.90 in 10.0 mi SSW 10.4 mph - 0.00 in   Overcast
11:56 AM 51.1 °F - 42.1 °F 71% 29.87 in 10.0 mi SSW 5.8 mph - N/A   Overcast
12:56 PM 51.1 °F - 42.1 °F 71% 29.87 in 10.0 mi South 9.2 mph - N/A   Overcast
1:56 PM 54.0 °F - 43.0 °F 66% 29.87 in 10.0 mi West 8.1 mph - N/A   Overcast
2:56 PM 54.0 °F - 44.1 °F 69% 29.88 in 10.0 mi West 11.5 mph 19.6 mph 0.00 in Rain Light Rain
3:56 PM 52.0 °F - 44.1 °F 74% 29.86 in 10.0 mi Calm Calm - 0.00 in   Overcast
4:56 PM 51.1 °F - 44.1 °F 77% 29.84 in 10.0 mi SSE 5.8 mph - N/A   Overcast
5:56 PM 52.0 °F - 44.1 °F 74% 29.82 in 10.0 mi South 8.1 mph - N/A   Overcast
6:56 PM 52.0 °F - 44.1 °F 74% 29.80 in 10.0 mi SSE 6.9 mph - N/A   Overcast
7:56 PM 52.0 °F - 44.1 °F 74% 29.77 in 10.0 mi Calm Calm - 0.00 in   Overcast
8:56 PM 54.0 °F - 43.0 °F 66% 29.76 in 10.0 mi SSW 8.1 mph - N/A   Overcast
9:56 PM 53.1 °F - 42.1 °F 66% 29.73 in 10.0 mi SSW 10.4 mph - N/A   Overcast
10:56 PM 53.1 °F - 42.1 °F 66% 29.73 in 10.0 mi Variable 4.6 mph - N/A   Overcast
11:56 PM 51.1 °F - 41.0 °F 68% 29.71 in 10.0 mi NE 3.5 mph - N/A   Overcast